sat.trackr.live / text

‹ back to catalog

STARLINK-1123

NORAD 44930 · 2020-001S

PAYLOAD ACTIVE UNKNOWN

§ Identity

Operator
Country
US
Launch date
2020-01-07
Launch site
AFETR
Launch vehicle
Mass (kg)
RCS (m²)

Purposes: comms

External: N2YO · Heavens-Above · Gunter

§ Orbital elements

Epoch: 2026-09-13T04:15:23.140224Z

Period
91.65 min
Inclination
53.1375°
Eccentricity
0.0001551
Mean motion
15.71276851 rev/d
Perigee alt
354.2 km
Apogee alt
356.3 km
Semi-major
6,733.4 km
B*
4.7134e-4
RAAN
161.8935°
Arg perigee
155.8726°
Mean anomaly
204.2365°
Rev number
36,902

§ Raw data

STARLINK-11231 44930U 20001S   26256.17735116  .00060811  00000+0  47134-3 0  99922 44930  53.1375 161.8935 0001551 155.8726 204.2365 15.71276851369020

JSON: /api/v1/satellites/44930 · /tle

For live sub-satellite position, see the globe view (requires WebGL).

§ Visibility from observer

Set your observer location to see the next 7 days of passes ≥ 10°. The values pass through the URL so the page stays shareable.

No JS? Fill the form by hand. The geolocation button needs JavaScript.